CZ-6A R/B, 63605

Orbit data source: Space-Track

CZ-6A R/B, 63605 is space debris in SSO originally from a launch on Fri, 18 Apr 2025 UTC launched from the Taiyaun Space Center, China (TSC). Debris objects in space refer to the collection of defunct objects orbiting the Earth. Examples of debris include non-operational satellites, rocket bodies, and fragments generated from explosions, collisions, or faulty payload assembly.

Loading next visibility...
Identifier
63605, 2025-078G
Orbit
SSO
Last TLE update
1 day ago
Origin
Manufacturer
SAST
Mission
Spacecraft
Bus & Motor
CZ-6A STAGE 2, YF-115
Mass
~6,000 kg wet, ~6,000 kg dry
Launch date (UTC)
2025-04-18 (1 month ago)
Launch vehicle
Unknown
Launch site
Taiyaun Space Center, China (TSC)
Object type
Payload
Rocket body
Debris
Shape & HBR
Unknown
Radar Cross Section
Large (>1 m²)

Expand to show TLE details & history

TLE from 1 day ago
0 CZ-6A R/B
1 63605U 25078G   25139.63214840 -.00000137  00000-0 -63075-4 0  9998
2 63605  99.7008 149.6216 0106723  27.3451 333.3271 13.94747614  4254
Epoch: 2025-05-19T15:10Z
TLE epoch observation values (Epoch: 2025-05-19T15:10:17.621Z)
Latitude
-0.00003°
Longitude
44.5062°
Altitude
845.52 km
Speed
7.465 km/s
True Right ascension
09h 58m 29s
True Declination
0° 00' 00"
Sunlit
Object was in daylight at epoch
Visualization orbit readout
Latitude
66.06349°
Longitude
-111.89083°
Altitude
919.143 km
Speed
7.401 km/s
Apparent Right ascension
14h 14m 09s
Apparent Declination
48° 56' 45"
Sunlit
Object is in daylight
Visualization observer readout
Local Sidereal Time
00:41:50
Azimuth
345.078° N
Elevation
1.172°
Doppler factor
1
Orbital elements
Apogee altitude
987.055 km
Perigee altitude
831.508 km
Semi-major axis
7,287.419 km
Eccentricity
0.01067
Inclination
99.7008°
RAAN
149.6216°
Arg. of periapsis
27.3451°
True anomaly
Unknown
Mean anomaly
333.3271°
Eccentric anomaly
Unknown
Mean motion
3.48885 °/min
Orbital period
103.19 mins
BSTAR
-0.000063075
Loading maneuver chart data...
Loading SW <> Apogee altitude chart data...
Loading historical data...
Loading historical data...
Loading historical data...
Loading historical data...
Loading historical data...
Loading historical data...
Loading historical data...

CZ-6A R/B Visibility forecast

Observer location: undefined°, undefined°

Span
Click to sort rows by Start time (UTC) header in descending order
Start Az.
Max El. time (UTC)
Max El. Az.
Max El.
End time (UTC)
End Az.
9 mins2025-05-21 00:00:06.389Z140.494° SSE2025-05-21 00:05:06.389Z61.095° ENE36.301°2025-05-21 00:09:06.389Z0.397° NNE
6 mins2025-05-21 01:44:06.389Z227.11° WSW2025-05-21 01:47:06.389Z267.515° W19.612°2025-05-21 01:50:06.389Z306.28° NW
8 mins2025-05-21 12:33:06.389Z53.339° ENE2025-05-21 12:36:06.389Z93.135° ESE23.663°2025-05-21 12:41:06.389Z150.481° SSE
9 mins2025-05-21 14:14:06.389Z356.702° N2025-05-21 14:18:06.389Z295.337° NW35.893°2025-05-21 14:23:06.389Z222.992° SW
|